Time,TemperatureF,DewpointF,PressureIn,WindDirection,WindDirectionDegrees,WindSpeedMPH,WindSpeedGustMPH,Humidity,HourlyPrecipIn,Conditions,Clouds,dailyrainin,SolarRadiationWatts/m^2,SoftwareType,DateUTC
2013-09-02 00:04:00,63.0,47.0,-100.00,SE,131,11.0,19.0,55,0.00,,,0.00,0.000000,,2013-09-02 04:04:00,
2013-09-02 00:12:00,62.0,45.0,-100.00,South,176,8.0,16.0,53,0.00,,,0.00,0.000000,,2013-09-02 04:12:00,
2013-09-02 00:44:00,62.0,45.0,-100.00,South,176,8.0,16.0,53,0.00,,,0.00,0.000000,,2013-09-02 04:44:00,
2013-09-02 00:54:00,62.0,45.0,-100.00,South,176,8.0,16.0,53,0.00,,,0.00,0.000000,,2013-09-02 04:54:00,
2013-09-02 01:03:00,62.0,45.0,-100.00,South,176,8.0,16.0,53,0.00,,,0.00,0.000000,,2013-09-02 05:03:00,
2013-09-02 01:12:00,61.0,46.0,-100.00,South,180,3.0,12.0,57,0.00,,,0.00,0.000000,,2013-09-02 05:12:00,
2013-09-02 01:44:00,61.0,46.0,-100.00,South,180,3.0,12.0,57,0.00,,,0.00,0.000000,,2013-09-02 05:44:00,
2013-09-02 01:52:00,61.0,46.0,-100.00,South,180,3.0,12.0,57,0.00,,,0.00,0.000000,,2013-09-02 05:52:00,
2013-09-02 02:03:00,61.0,46.0,-100.00,South,180,3.0,12.0,57,0.00,,,0.00,0.000000,,2013-09-02 06:03:00,
2013-09-02 02:43:00,60.0,46.0,-100.00,WNW,286,4.0,6.0,60,0.00,,,0.00,0.000000,,2013-09-02 06:43:00,
2013-09-02 02:52:00,60.0,46.0,-100.00,WNW,286,4.0,6.0,60,0.00,,,0.00,0.000000,,2013-09-02 06:52:00,
2013-09-02 03:01:00,60.0,46.0,-100.00,WNW,286,4.0,6.0,60,0.00,,,0.00,0.000000,,2013-09-02 07:01:00,
2013-09-02 03:11:00,60.0,46.0,-100.00,WNW,286,4.0,6.0,60,0.00,,,0.00,0.000000,,2013-09-02 07:11:00,
2013-09-02 03:42:00,59.0,47.0,-100.00,WNW,300,7.0,11.0,64,0.00,,,0.00,0.000000,,2013-09-02 07:42:00,
2013-09-02 03:52:00,59.0,47.0,-100.00,WNW,300,7.0,11.0,64,0.00,,,0.00,0.000000,,2013-09-02 07:52:00,
2013-09-02 04:02:00,59.0,47.0,-100.00,WNW,300,7.0,11.0,64,0.00,,,0.00,0.000000,,2013-09-02 08:02:00,
2013-09-02 04:11:00,59.0,47.0,-100.00,WNW,300,7.0,11.0,64,0.00,,,0.00,0.000000,,2013-09-02 08:11:00,
2013-09-02 04:12:00,57.0,47.0,-100.00,NW,326,8.0,14.0,70,0.00,,,0.00,0.000000,,2013-09-02 08:12:00,
2013-09-02 04:42:00,57.0,47.0,-100.00,NW,326,8.0,14.0,70,0.00,,,0.00,0.000000,,2013-09-02 08:42:00,
2013-09-02 04:52:00,57.0,47.0,-100.00,NW,326,8.0,14.0,70,0.00,,,0.00,0.000000,,2013-09-02 08:52:00,
2013-09-02 05:01:00,57.0,47.0,-100.00,NW,326,8.0,14.0,70,0.00,,,0.00,0.000000,,2013-09-02 09:01:00,
2013-09-02 05:12:00,58.0,49.0,-100.00,NNW,338,8.0,13.0,72,0.00,,,0.00,0.000000,,2013-09-02 09:12:00,
2013-09-02 05:44:00,58.0,49.0,-100.00,NNW,338,8.0,13.0,72,0.00,,,0.00,0.000000,,2013-09-02 09:44:00,
2013-09-02 05:53:00,58.0,49.0,-100.00,NNW,338,8.0,13.0,72,0.00,,,0.00,0.000000,,2013-09-02 09:53:00,
2013-09-02 06:03:00,58.0,49.0,-100.00,NNW,338,8.0,13.0,72,0.00,,,0.00,0.000000,,2013-09-02 10:03:00,
2013-09-02 06:42:00,59.0,48.0,-100.00,North,352,5.0,10.0,66,0.00,,,0.00,0.000000,,2013-09-02 10:42:00,
2013-09-02 06:53:00,59.0,48.0,-100.00,North,352,5.0,10.0,66,0.00,,,0.00,0.000000,,2013-09-02 10:53:00,
2013-09-02 07:03:00,59.0,48.0,-100.00,North,352,5.0,10.0,66,0.00,,,0.00,0.000000,,2013-09-02 11:03:00,
2013-09-02 07:11:00,59.0,48.0,-100.00,North,352,5.0,10.0,66,0.00,,,0.00,0.000000,,2013-09-02 11:11:00,
2013-09-02 07:12:00,57.0,48.0,-100.00,ESE,117,3.0,7.0,73,0.00,,,0.00,0.000000,,2013-09-02 11:12:00,
2013-09-02 07:42:00,57.0,48.0,-100.00,ESE,117,3.0,7.0,73,0.00,,,0.00,0.000000,,2013-09-02 11:42:00,
2013-09-02 07:52:00,57.0,48.0,-100.00,ESE,117,3.0,7.0,73,0.00,,,0.00,0.000000,,2013-09-02 11:52:00,
2013-09-02 08:02:00,57.0,48.0,-100.00,ESE,117,3.0,7.0,73,0.00,,,0.00,0.000000,,2013-09-02 12:02:00,
2013-09-02 08:43:00,58.0,47.0,-100.00,North,4,6.0,7.0,66,0.00,,,0.00,0.000000,,2013-09-02 12:43:00,
2013-09-02 08:52:00,58.0,47.0,-100.00,North,4,6.0,7.0,66,0.00,,,0.00,0.000000,,2013-09-02 12:52:00,
2013-09-02 09:02:00,58.0,47.0,-100.00,North,4,6.0,7.0,66,0.00,,,0.00,0.000000,,2013-09-02 13:02:00,
2013-09-02 09:11:00,58.0,47.0,-100.00,North,4,6.0,7.0,66,0.00,,,0.00,0.000000,,2013-09-02 13:11:00,
2013-09-02 09:42:00,59.0,47.0,-100.00,North,1,5.0,8.0,65,0.00,,,0.00,4.000000,,2013-09-02 13:42:00,
2013-09-02 09:52:00,59.0,47.0,-100.00,North,1,5.0,8.0,65,0.00,,,0.00,4.000000,,2013-09-02 13:52:00,
2013-09-02 10:02:00,59.0,47.0,-100.00,North,1,5.0,8.0,65,0.00,,,0.00,4.000000,,2013-09-02 14:02:00,
2013-09-02 10:11:00,59.0,47.0,-100.00,North,1,5.0,8.0,65,0.00,,,0.00,4.000000,,2013-09-02 14:11:00,
2013-09-02 10:12:00,59.0,46.0,-100.00,SE,127,2.0,6.0,62,0.00,,,0.00,40.000000,,2013-09-02 14:12:00,
2013-09-02 10:43:00,59.0,46.0,-100.00,SE,127,2.0,6.0,62,0.00,,,0.00,40.000000,,2013-09-02 14:43:00,
2013-09-02 10:52:00,59.0,46.0,-100.00,SE,127,2.0,6.0,62,0.00,,,0.00,40.000000,,2013-09-02 14:52:00,
2013-09-02 11:02:00,59.0,46.0,-100.00,SE,127,2.0,6.0,62,0.00,,,0.00,40.000000,,2013-09-02 15:02:00,
2013-09-02 11:12:00,65.0,47.0,-100.00,ESE,104,2.0,6.0,52,0.00,,,0.00,260.000000,,2013-09-02 15:12:00,
2013-09-02 11:45:00,65.0,47.0,-100.00,ESE,104,2.0,6.0,52,0.00,,,0.00,260.000000,,2013-09-02 15:45:00,
2013-09-02 11:55:00,65.0,47.0,-100.00,ESE,104,2.0,6.0,52,0.00,,,0.00,260.000000,,2013-09-02 15:55:00,
2013-09-02 12:04:00,65.0,47.0,-100.00,ESE,104,2.0,6.0,52,0.00,,,0.00,260.000000,,2013-09-02 16:04:00,
2013-09-02 12:12:00,71.0,51.0,-100.00,West,279,3.0,6.0,49,0.00,,,0.00,532.000000,,2013-09-02 16:12:00,
2013-09-02 12:43:00,71.0,51.0,-100.00,West,279,3.0,6.0,49,0.00,,,0.00,532.000000,,2013-09-02 16:43:00,
2013-09-02 12:53:00,71.0,51.0,-100.00,West,279,3.0,6.0,49,0.00,,,0.00,532.000000,,2013-09-02 16:53:00,
2013-09-02 13:03:00,71.0,51.0,-100.00,West,279,3.0,6.0,49,0.00,,,0.00,532.000000,,2013-09-02 17:03:00,
2013-09-02 13:12:00,67.0,48.0,-100.00,NW,325,5.0,10.0,51,0.00,,,-99.99,527.000000,,2013-09-02 17:12:00,
2013-09-02 13:45:00,67.0,48.0,-100.00,NW,325,5.0,10.0,51,0.00,,,-99.99,527.000000,,2013-09-02 17:45:00,
2013-09-02 13:52:00,67.0,48.0,-100.00,NW,325,5.0,10.0,51,0.00,,,-99.99,527.000000,,2013-09-02 17:52:00,
2013-09-02 14:02:00,67.0,48.0,-100.00,NW,325,5.0,10.0,51,0.00,,,-99.99,527.000000,,2013-09-02 18:02:00,
2013-09-02 14:12:00,68.0,50.0,-100.00,North,5,3.0,6.0,52,0.00,,,0.00,316.000000,,2013-09-02 18:12:00,
2013-09-02 14:42:00,68.0,50.0,-100.00,North,5,3.0,6.0,52,0.00,,,0.00,316.000000,,2013-09-02 18:42:00,
2013-09-02 14:52:00,68.0,50.0,-100.00,North,5,3.0,6.0,52,0.00,,,0.00,316.000000,,2013-09-02 18:52:00,
2013-09-02 15:02:00,68.0,50.0,-100.00,North,5,3.0,6.0,52,0.00,,,0.00,316.000000,,2013-09-02 19:02:00,
2013-09-02 15:12:00,77.0,49.0,-100.00,South,186,6.0,11.0,38,0.00,,,0.00,772.000000,,2013-09-02 19:12:00,
2013-09-02 15:42:00,77.0,49.0,-100.00,South,186,6.0,11.0,38,0.00,,,0.00,772.000000,,2013-09-02 19:42:00,
2013-09-02 15:52:00,77.0,49.0,-100.00,South,186,6.0,11.0,38,0.00,,,0.00,772.000000,,2013-09-02 19:52:00,
2013-09-02 16:02:00,77.0,49.0,-100.00,South,186,6.0,11.0,38,0.00,,,0.00,772.000000,,2013-09-02 20:02:00,
2013-09-02 16:12:00,80.0,47.0,-100.00,West,271,4.0,11.0,32,0.00,,,-99.99,863.000000,,2013-09-02 20:12:00,
2013-09-02 16:42:00,80.0,47.0,-100.00,West,271,4.0,11.0,32,0.00,,,-99.99,863.000000,,2013-09-02 20:42:00,
2013-09-02 16:52:00,80.0,47.0,-100.00,West,271,4.0,11.0,32,0.00,,,-99.99,863.000000,,2013-09-02 20:52:00,
2013-09-02 17:02:00,80.0,47.0,-100.00,West,271,4.0,11.0,32,0.00,,,-99.99,863.000000,,2013-09-02 21:02:00,
2013-09-02 17:12:00,78.0,46.0,-100.00,West,275,6.0,12.0,32,0.00,,,0.00,787.000000,,2013-09-02 21:12:00,
2013-09-02 17:44:00,78.0,46.0,-100.00,West,275,6.0,12.0,32,0.00,,,0.00,787.000000,,2013-09-02 21:44:00,
2013-09-02 17:55:00,78.0,46.0,-100.00,West,275,6.0,12.0,32,0.00,,,0.00,787.000000,,2013-09-02 21:55:00,
2013-09-02 18:04:00,78.0,46.0,-100.00,West,275,6.0,12.0,32,0.00,,,0.00,787.000000,,2013-09-02 22:04:00,
2013-09-02 18:12:00,78.0,46.0,-100.00,WNW,299,7.0,11.0,32,0.00,,,0.00,591.000000,,2013-09-02 22:12:00,
2013-09-02 18:44:00,78.0,46.0,-100.00,WNW,299,7.0,11.0,32,0.00,,,0.00,591.000000,,2013-09-02 22:44:00,
2013-09-02 18:54:00,78.0,46.0,-100.00,WNW,299,7.0,11.0,32,0.00,,,0.00,591.000000,,2013-09-02 22:54:00,
2013-09-02 19:03:00,78.0,46.0,-100.00,WNW,299,7.0,11.0,32,0.00,,,0.00,591.000000,,2013-09-02 23:03:00,
2013-09-02 19:42:00,78.0,40.0,-100.00,NNW,329,6.0,12.0,26,0.00,,,0.00,379.000000,,2013-09-02 23:42:00,
2013-09-02 19:53:00,78.0,40.0,-100.00,NNW,329,6.0,12.0,26,0.00,,,0.00,379.000000,,2013-09-02 23:53:00,
2013-09-02 20:01:00,78.0,40.0,-100.00,NNW,329,6.0,12.0,26,0.00,,,0.00,379.000000,,2013-09-03 00:01:00,
2013-09-02 20:11:00,78.0,40.0,-100.00,NNW,329,6.0,12.0,26,0.00,,,0.00,379.000000,,2013-09-03 00:11:00,
2013-09-02 20:42:00,74.0,41.0,-100.00,North,349,6.0,15.0,31,0.00,,,0.00,93.000000,,2013-09-03 00:42:00,
2013-09-02 20:52:00,74.0,41.0,-100.00,North,349,6.0,15.0,31,0.00,,,0.00,93.000000,,2013-09-03 00:52:00,
2013-09-02 21:01:00,74.0,41.0,-100.00,North,349,6.0,15.0,31,0.00,,,0.00,93.000000,,2013-09-03 01:01:00,
2013-09-02 21:11:00,74.0,41.0,-100.00,North,349,6.0,15.0,31,0.00,,,0.00,93.000000,,2013-09-03 01:11:00,
2013-09-02 21:12:00,69.0,42.0,-100.00,ESE,114,5.0,12.0,38,0.00,,,0.00,40.000000,,2013-09-03 01:12:00,
2013-09-02 21:42:00,69.0,42.0,-100.00,ESE,114,5.0,12.0,38,0.00,,,0.00,40.000000,,2013-09-03 01:42:00,
2013-09-02 21:52:00,69.0,42.0,-100.00,ESE,114,5.0,12.0,38,0.00,,,0.00,40.000000,,2013-09-03 01:52:00,
2013-09-02 22:02:00,69.0,42.0,-100.00,ESE,114,5.0,12.0,38,0.00,,,0.00,40.000000,,2013-09-03 02:02:00,
2013-09-02 22:42:00,66.0,42.0,-100.00,North,356,6.0,9.0,42,0.00,,,0.00,5.000000,,2013-09-03 02:42:00,
2013-09-02 22:52:00,66.0,42.0,-100.00,North,356,6.0,9.0,42,0.00,,,0.00,5.000000,,2013-09-03 02:52:00,
2013-09-02 23:02:00,66.0,42.0,-100.00,North,356,6.0,9.0,42,0.00,,,0.00,5.000000,,2013-09-03 03:02:00,
2013-09-02 23:11:00,66.0,42.0,-100.00,North,356,6.0,9.0,42,0.00,,,0.00,5.000000,,2013-09-03 03:11:00,
2013-09-02 23:12:00,64.0,44.0,-100.00,NNE,14,5.0,9.0,48,0.00,,,0.00,0.000000,,2013-09-03 03:12:00,
2013-09-02 23:45:00,64.0,44.0,-100.00,NNE,14,5.0,9.0,48,0.00,,,0.00,0.000000,,2013-09-03 03:45:00,
2013-09-02 23:55:00,64.0,44.0,-100.00,NNE,14,5.0,9.0,48,0.00,,,0.00,0.000000,,2013-09-03 03:55:00,